Location: Gleizolles
(44.4833°N, 6.7667°E)
Time: 20:27:34
(UTC+00:00)

A-11 Canister half - Pass Details

Date: 25 June 2024
Orbit: 1524 x 1684 km, 47.3° (Epoch: 18 July)

Event Time Altitude Azimuth Distance (km) Brightness Sun altitude
Rises 12:31:59 0° 248° (WSW) 4,752 11.9 66.0°
Reaches altitude 10° 12:35:04 10° 248° (WSW) 3,750 11.5 65.6°
Maximum altitude 12:44:33 89° 163° (SSE) 1,539 10.5 64.6°
Drops below altitude 10° 12:53:53 10° 72° (ENE) 3,692 10.9 63.5°
Sets 12:56:55 0° 72° (ENE) 4,676 11.3 63.1°
